Change the Weather History Date:

Sunday, January 1, 2012

  Actual Average Record
Temperature  
Mean Temperature 32 °F 24 °F  
Max Temperature 38 °F 33 °F 55 °F (2004)
Min Temperature 26 °F 16 °F -11 °F (1979)
Degree Days  
Heating Degree Days 33 41  
Month to date heating degree days 33 41  
Since 1 July heating degree days 2177 2470  
Cooling Degree Days 0 0  
Month to date cooling degree days 0 0  
Year to date cooling degree days 0 0  
Moisture  
Dew Point 20 °F    
Average Humidity 64    
Maximum Humidity 96    
Minimum Humidity 32    
Precipitation  
Precipitation 0.02 in 0.02 in 0.24 in (1992)
Month to date precipitation 0.02 0.02  
Year to date precipitation 0.02  
Sea Level Pressure  
Sea Level Pressure 30.27 in    
Wind  
Wind Speed 22 mph (NW)    
Max Wind Speed 33 mph    
Max Gust Speed 46 mph    
Visibility 10 miles    
Events      
T = Trace of Precipitation, MM = Missing Value Source: NWS Daily Summary

Daily Weather History Graph

Daily Weather History Graph

Search for Another Location

Airport or City:

Trip Planner

Search our weather history database for the weather conditions in past years. The results will help you decide how hot, cold, wet, or windy it might be!

Date:

Astronomy

Jan. 01, 2012 Rise Set
Actual Time 7:39 AM CST 4:58 PM CST
Civil Twilight 7:08 AM CST 5:29 PM CST
Nautical Twilight 6:34 AM CST 6:03 PM CST
Astronomical Twilight 6:01 AM CST 6:37 PM CST
Moon 11:48 AM CST (1/1) 12:34 AM CST (1/1)
Length of Visible Light 10h 21m
Length of Day
9h 19m
First Quarter, 55% of the Moon is Illuminated
Jan 1
First Quarter
Jan 9
Full
Jan 16
Last Quarter
Jan 23
New
Jan 30
First Quarter

Hourly Weather History & Observations

Time (CST) Temp. Windchill Dew Point Humidity Pressure Visibility Wind Dir Wind Speed Gust Speed Precip Events Conditions
12:53 AM 35.1 °F 23.5 °F 33.1 °F 92% 29.84 in 9.0 mi WNW 21.9 mph 28.8 mph 0.01 in   Overcast
1:39 AM 35.6 °F 23.4 °F 33.8 °F 93% 29.86 in 10.0 mi NW 25.3 mph 33.4 mph 0.01 in   Overcast
2:53 AM 35.1 °F 22.2 °F 30.0 °F 82% 29.96 in 10.0 mi NW 27.6 mph 35.7 mph N/A   Overcast
3:53 AM 34.0 °F 21.3 °F 28.9 °F 82% 30.03 in 10.0 mi NW 25.3 mph 38.0 mph N/A   Scattered Clouds
4:53 AM 33.1 °F 19.8 °F 26.1 °F 75% 30.09 in 10.0 mi NW 26.5 mph 36.8 mph N/A   Clear
5:53 AM 30.9 °F 18.1 °F 25.0 °F 79% 30.14 in 10.0 mi NW 21.9 mph 29.9 mph N/A   Clear
6:53 AM 30.0 °F 18.3 °F 24.1 °F 79% 30.19 in 10.0 mi WNW 17.3 mph 24.2 mph N/A   Clear
7:53 AM 28.9 °F 17.3 °F 21.9 °F 75% 30.25 in 10.0 mi NW 16.1 mph - N/A   Clear
8:53 AM 30.9 °F 19.1 °F 21.9 °F 69% 30.30 in 10.0 mi NW 18.4 mph 26.5 mph N/A   Clear
9:53 AM 32.0 °F 20.5 °F 21.0 °F 64% 30.32 in 10.0 mi NW 18.4 mph 27.6 mph N/A   Clear
10:53 AM 35.1 °F 22.5 °F 19.0 °F 52% 30.34 in 10.0 mi NW 26.5 mph 34.5 mph N/A   Clear
11:53 AM 36.0 °F 23.9 °F 16.0 °F 44% 30.33 in 10.0 mi NW 25.3 mph 39.1 mph N/A   Clear
12:53 PM 37.0 °F 25.1 °F 16.0 °F 42% 30.33 in 10.0 mi WNW 26.5 mph 38.0 mph N/A   Clear
1:53 PM 37.0 °F 25.1 °F 16.0 °F 42% 30.33 in 10.0 mi NW 26.5 mph 36.8 mph N/A   Clear
2:53 PM 37.0 °F 24.7 °F 14.0 °F 39% 30.35 in 10.0 mi WNW 28.8 mph 34.5 mph N/A   Clear
3:53 PM 37.0 °F 25.6 °F 10.0 °F 33% 30.38 in 10.0 mi WNW 24.2 mph 38.0 mph 0.00 in   Clear
4:53 PM 34.0 °F 22.7 °F 12.9 °F 42% 30.41 in 10.0 mi NW 19.6 mph 28.8 mph N/A   Clear
5:53 PM 32.0 °F 20.1 °F 16.0 °F 52% 30.43 in 10.0 mi NW 19.6 mph 31.1 mph N/A   Clear
6:53 PM 30.0 °F 19.1 °F 17.1 °F 59% 30.46 in 10.0 mi NW 15.0 mph - N/A   Clear
7:53 PM 28.9 °F 16.9 °F 16.0 °F 58% 30.48 in 10.0 mi NW 17.3 mph - N/A   Clear
8:53 PM 27.0 °F 16.1 °F 16.0 °F 63% 30.49 in 10.0 mi NW 12.7 mph - N/A   Clear
9:53 PM 28.0 °F 14.3 °F 14.0 °F 56% 30.48 in 10.0 mi NW 21.9 mph 29.9 mph N/A   Clear
11:53 PM 26.1 °F 12.7 °F 15.1 °F 63% 30.48 in 10.0 mi NW 18.4 mph 27.6 mph N/A   Clear